Location: Unspecified
(49.9820°N, 20.4363°E)
Time: 06:37:31
(UTC+02:00)

Tiros 1 - Visible Passes

Search period start: 14 May 2026 00:00
Search period end: 24 May 2026 00:00
Orbit: 618 x 648 km, 48.4° (Epoch: 13 May)

Date Brightness Start Highest point End Pass type
(mag) Time Alt. Az. Time Alt. Az. Time Alt. Az.
14 May 8.6 00:56:38 22° ESE 00:56:38 22° ESE 00:58:54 10° E visible
14 May 7.0 02:33:58 26° WSW 02:36:24 64° SSE 02:40:55 10° E visible
15 May 7.5 01:16:37 42° SE 01:16:37 42° SE 01:20:34 10° E visible
15 May 7.0 02:53:57 14° W 02:57:52 73° S 03:02:25 10° E visible
15 May 9.2 23:59:12 14° E 23:59:12 14° E 23:59:58 10° E visible
16 May 7.0 01:36:31 46° SW 01:37:35 60° SSE 01:42:06 10° E visible
16 May 7.0 03:14:45 10° W 03:19:20 72° S 03:23:53 10° ESE visible
17 May 8.2 00:18:59 29° ESE 00:18:59 29° ESE 00:21:42 10° E visible
17 May 6.9 01:56:18 24° WSW 01:59:01 71° S 02:03:35 10° E visible
17 May 7.1 03:36:15 10° W 03:40:46 61° SSW 03:45:16 10° ESE visible
18 May 7.1 00:38:34 54° S 00:38:46 55° SSE 00:43:15 10° E visible
18 May 6.9 02:15:53 10° W 02:20:29 74° S 02:25:04 10° E visible
18 May 7.4 03:57:46 10° W 04:02:08 45° SSW 04:06:29 10° SE visible
18 May 8.3 23:20:23 25° ESE 23:20:23 25° ESE 23:22:49 10° E visible
19 May 6.9 00:57:38 26° WSW 01:00:11 69° S 01:04:45 10° E visible
19 May 7.0 02:37:23 10° W 02:41:57 65° S 02:46:28 10° ESE visible
19 May 8.4 21:55:36 10° S 21:58:45 18° SE 22:01:54 10° E visible
19 May 7.2 23:35:28 10° SW 23:39:57 50° SSE 23:44:24 10° E visible
20 May 6.9 01:17:02 10° W 01:21:39 74° S 01:26:13 10° E visible
20 May 7.2 02:58:53 10° W 03:03:20 50° SSW 03:07:45 10° SE visible
20 May 7.8 22:15:51 10° SSW 22:19:53 30° SSE 22:23:54 10° E visible
20 May 7.0 23:56:45 10° WSW 00:01:21 65° SSE 00:05:54 10° E visible
21 May 6.9 01:38:31 10° W 01:43:06 69° S 01:47:39 10° ESE visible
21 May 7.7 03:20:29 10° W 03:24:38 34° SSW 03:28:45 10° SE visible
21 May 7.3 22:36:43 10° SW 22:41:08 45° SSE 22:45:32 10° E visible
22 May 6.9 00:18:10 10° W 00:22:48 74° S 00:27:23 10° E visible
22 May 7.1 02:00:01 10° W 02:04:31 55° SSW 02:08:59 10° ESE visible
22 May 8.3 03:42:19 10° W 03:45:48 21° SW 03:49:15 10° SSE visible
22 May 8.1 21:17:16 10° SSW 21:21:07 26° SSE 21:24:56 10° E visible
22 May 7.0 22:57:55 10° WSW 23:02:30 61° SSE 23:07:03 10° E visible
23 May 6.9 00:39:38 10° W 00:44:16 72° S 00:48:50 10° ESE visible
23 May 7.5 02:21:34 10° W 02:25:51 39° SSW 02:30:06 10° SE visible
23 May 7.5 21:37:59 10° SW 21:42:20 40° SSE 21:46:40 10° E visible
23 May 7.0 23:19:18 10° WSW 23:23:57 72° S 23:28:32 10° E visible
